Location: Milton Keynes
(52.0316°N, 0.7531°W)
Time: 13:50:22
(UTC+01:00)

Falcon 9 debris - Visible Passes

Search period start: 22 October 2020 00:00
Search period end: 31 October 2020 23:00
Orbit: 425 x 433 km, 53.0° (Epoch: 22 October)

Date Brightness Start Highest point End Pass type
(mag) Time Alt. Az. Time Alt. Az. Time Alt. Az.
22 Oct ? 19:56:51 10° W 20:00:17 73° N 20:00:21 73° N visible
23 Oct ? 19:12:38 10° W 19:16:03 77° N 19:17:47 27° ENE visible
23 Oct ? 20:49:38 10° WNW 20:50:57 21° WNW 20:50:57 21° WNW visible
24 Oct ? 18:28:24 10° W 18:31:50 85° NNW 18:35:13 10° ENE visible
24 Oct ? 20:05:25 10° W 20:08:23 62° WNW 20:08:23 62° WNW visible
25 Oct ? 18:21:12 10° W 18:24:37 75° N 18:25:49 37° E visible
25 Oct ? 19:58:09 10° WNW 19:58:58 16° W 19:58:58 16° W visible
26 Oct ? 17:36:56 10° W 17:40:22 73° N 17:43:15 14° E visible
26 Oct ? 19:13:55 10° WNW 19:16:25 44° W 19:16:25 44° W visible
27 Oct ? 18:29:40 10° WNW 18:33:07 84° SSW 18:33:53 51° ESE visible
27 Oct ? 20:06:48 10° W 20:07:03 11° W 20:07:03 11° W visible
28 Oct ? 17:45:25 10° WNW 17:48:52 84° N 17:51:24 17° E visible
28 Oct ? 19:22:27 10° W 19:24:34 28° WSW 19:24:34 28° WSW visible
29 Oct ? 18:38:08 10° W 18:41:27 47° SSW 18:42:08 40° S visible
30 Oct ? 17:53:51 10° WNW 17:57:14 61° SSW 17:59:46 16° SE visible
30 Oct ? 19:31:25 10° W 19:32:57 16° WSW 19:32:57 16° WSW visible
31 Oct ? 17:09:35 10° WNW 17:13:00 77° SSW 17:16:26 10° ESE visible
31 Oct ? 18:46:48 10° W 18:49:34 23° SW 18:50:42 19° S visible
